Preview of NWS' New Version of Forecast
This preview is not operational and should not be used for support decisions.

Regional Weather Roundup (RWR)

Issued by National Weather Service (NWS)

                            
000
ASUS43 KTOP 192108
RWRKS 

WEATHER ROUNDUP FOR KANSAS
NATIONAL WEATHER SERVICE GOODLAND KS
300 PM CST TUE FEB 19 2019

NOTE:  "FAIR" INDICATES FEW OR NO CLOUDS BELOW 12,000 FEET WITH NO
SIGNIFICANT WEATHER AND/OR OBSTRUCTIONS TO VISIBILITY.

KSZ001>006-013>018-027>032-041>047-192200-
NORTHWEST KANSAS
  
CITY           SKY/WX    TMP DP  RH WIND       PRES   REMARKS
GOODLAND       CLOUDY    16  14  92 SE13      29.91F FOG     WCI   2  
HAYS           CLOUDY    23  19  85 E12       30.08F WCI  12          
HILL CITY      CLOUDY    24  18  77 E8        30.05F                  
RUSSELL        CLOUDY    24  20  84 E12       30.07F WCI  13          
$$

KSZ061>065-074>080-084>089-192200-
SOUTHWEST KANSAS
  
CITY           SKY/WX    TMP DP  RH WIND       PRES   REMARKS
DODGE CITY     CLOUDY    24  17  74 E9        30.00F HAZE             
ELKHART        PTSUNNY   26  21  82 SE10      29.90F WCI  16          
GARDEN CITY    CLOUDY    21  19  92 E14       29.97F FOG     WCI   8  
GREAT BEND     LGT SNOW  25  19  80 E12       30.07F FOG     WCI  14  
LIBERAL        FLURRIES  23  19  85 SE9       29.97F                  
PRATT          SNOW      25  24  94 E8        30.06F VSB 1/2          
$$

KSZ066>073-081>083-090>101-192200-
SOUTHEAST KANSAS
  
CITY           SKY/WX    TMP DP  RH WIND       PRES   REMARKS
CHANUTE        PTSUNNY   37  24  59 NE13      30.12F WCI  29          
COFFEYVILLE    CLOUDY    41  23  48 E12       30.12F                  
HUTCHINSON     HVY SNOW  28  27  96 E9        30.11S VSB 1/4          
MEDICINE LODGE   N/A     26  25  96 E7        30.05F                  
NEWTON         CLOUDY    31  22  69 E8        30.13R                  
PARSONS        CLOUDY    41  23  48 MISG      30.12F                  
WICHITA INTL   LGT SNOW  32  23  69 E9        30.09F                  
WICHITA JABRA  CLOUDY    33  19  56 E6        30.11S                  
WICHITA MCCONL FLURRIES  33  20  58 NE9       30.09F                  
WINFIELD       SNOW      30  27  88 E6        30.12F VSB 1/2          
$$

KSZ007>012-019>026-033>040-048>060-102>105-192200-
NORTHEAST KANSAS
  
CITY           SKY/WX    TMP DP  RH WIND       PRES   REMARKS
CONCORDIA      CLOUDY    26  19  74 E15G24    30.14F WCI  14          
EMPORIA        CLOUDY    30  22  72 E15       30.15R WCI  19          
LAWRENCE       CLOUDY    31  19  61 E13       30.21F WCI  21          
MANHATTAN      CLOUDY    29  21  72 E10       30.19S WCI  20          
MARYSVILLE     CLOUDY    25  19  80 E12       30.20F WCI  14          
OLATHE IND     CLOUDY    30  20  66 E12G26    30.19F WCI  20          
OLATHE EXE     CLOUDY    29  20  69 E13G28    30.19F WCI  19          
SALINA         LGT SNOW  28  23  81 E7        30.17R VSB 3/4          
TOPEKA BILLARD CLOUDY    31  19  61 E15       30.21S WCI  20          
TOPEKA FORBES  CLOUDY    30  19  63 E12G23    30.18S WCI  20          
$$